User: anonymous   Login
Location: Unspecified
(0.0000°N, 0.0000°E)
Time: 09:27:46
(UTC+00:00)
Language:

AEROCUBE 6B - Orbit

View from above orbital plane
View from above orbital plane
View from above satellite
View from above satellite

Ground track
Ground track

The orbit data is extracted from the following two-line orbital elements,

1 40046U 14033AN  17327.63480517 +.00000413 +00000-0 +67253-4 0  9994
2 40046 097.8463 208.6150 0058141 134.4819 226.1165 14.74979718183983
Epoch (UTC): 23 November 2017 15:14:07
Eccentricity: 0.0058141
inclination: 97.8463°
perigee height: 604 km
apogee height: 686 km
right ascension of ascending node: 208.6150°
argument of perigee: 134.4819°
revolutions per day: 14.74979718
mean anomaly at epoch: 226.1165°
orbit number at epoch: 18398

The dashed part of the orbit path shows where the satellite is in the earth's shadow,  

DLR